IQ0OG-3 Weather Reports


time (UTC)temp
C
wind
direction
speed
KPH
gust
KPH
rain 1hr
cm
rain 24hr
cm
rain mn
cm
humidity
%
barometer
mb
20260507174009 15 0 0.0 0.0 0.00 0.03 0.00 84 1010.3
20260507173010 16 0 0.0 0.0 0.00 0.03 0.00 83 1010.1
20260507172010 16 0 0.0 3.2 0.00 0.03 0.00 82 1010.4
20260507171009 15 5 1.6 3.2 0.00 0.03 0.00 82 1010.6
20260507170010 16 0 0.0 3.2 0.00 0.03 0.00 84 1010.6
20260507165010 15 4 3.2 6.4 0.00 0.03 0.00 84 1010.5
20260507164010 15 0 0.0 6.4 0.00 0.03 0.00 84 1010.7
20260507163009 15 6 3.2 6.4 0.00 0.03 0.00 86 1011.0
20260507161009 16 18 1.6 6.4 0.00 0.10 0.00 87 1011.0
20260507160010 16 0 0.0 3.2 0.00 0.20 0.00 87 1011.2
20260507155010 16 0 0.0 6.4 0.00 0.23 0.00 86 1011.2
20260507154010 16 0 0.0 6.4 0.00 0.28 0.00 86 1011.0
20260507153009 16 55 1.6 6.4 0.00 0.30 0.00 86 1011.1
20260507152010 16 26 1.6 6.4 0.00 0.30 0.00 86 1011.3
20260507150010 16 18 3.2 6.4 0.00 0.33 0.00 85 1011.5
20260507144010 15 59 3.2 9.7 0.00 0.36 0.00 87 1011.4
20260507143009 15 89 6.4 11.3 0.00 0.38 0.00 88 1011.2
20260507142010 16 82 6.4 11.3 0.00 0.38 0.00 86 1011.4
20260507141009 16 74 4.8 9.7 0.00 0.38 0.00 85 1011.3
20260507140012 16 78 4.8 11.3 0.00 0.38 0.00 87 1011.4
20260507135009 16 79 6.4 11.3 0.00 0.38 0.00 86 1011.5
20260507134010 16 63 3.2 9.7 0.00 0.38 0.00 85 1011.7
20260507133009 16 63 4.8 9.7 0.00 0.38 0.00 85 1011.7
20260507132009 17 72 4.8 9.7 0.00 0.38 0.00 83 1011.7
20260507131009 17 45 3.2 6.4 0.00 0.38 0.00 80 1011.8
20260507130010 17 68 3.2 11.3 0.00 0.38 0.00 81 1011.6
20260507125011 17 64 4.8 9.7 0.00 0.38 0.00 80 1011.6
20260507124010 17 0 0.0 9.7 0.00 0.38 0.00 79 1011.8
20260507123010 17 79 4.8 9.7 0.00 0.38 0.00 81 1011.9
20260507121010 18 66 3.2 6.4 0.00 0.38 0.00 79 1012.2
20260507115009 17 80 6.4 11.3 0.00 0.43 0.00 79 1012.1
20260507114009 17 59 1.6 9.7 0.00 0.43 0.00 80 1012.1
20260507110010 17 87 1.6 11.3 0.00 0.46 0.00 81 1012.3
20260507105009 17 84 6.4 9.7 0.00 0.46 0.00 82 1012.4
20260507103009 16 358 4.8 9.7 0.00 0.46 0.00 83 1012.5
20260507101009 16 71 3.2 6.4 0.00 0.46 0.00 84 1012.5
20260507100009 16 72 4.8 6.4 0.00 0.46 0.00 85 1012.6
20260507095009 16 75 3.2 6.4 0.00 0.46 0.00 85 1012.7
20260507094009 16 45 3.2 6.4 0.00 0.46 0.00 86 1012.6
20260507092009 15 61 1.6 6.4 0.00 0.46 0.00 88 1012.7
20260507090009 15 38 3.2 6.4 0.00 0.46 0.00 88 1012.5
20260507085009 15 42 1.6 6.4 0.00 0.46 0.00 88 1012.6
20260507084009 16 69 3.2 6.4 0.00 0.46 0.00 88 1012.5
20260507083008 16 46 3.2 9.7 0.00 0.46 0.00 86 1012.3
20260507082009 16 73 3.2 6.4 0.00 0.46 0.00 85 1012.4
20260507081008 16 29 1.6 6.4 0.00 0.46 0.00 84 1012.3
20260507080009 16 18 1.6 6.4 0.00 0.46 0.00 84 1012.2
20260507075009 16 12 3.2 6.4 0.00 0.46 0.00 85 1012.6
20260507074009 16 30 1.6 3.2 0.00 0.46 0.00 85 1012.4
20260507073008 15 0 0.0 3.2 0.00 0.46 0.00 87 1012.6
20260507072009 15 82 1.6 6.4 0.00 0.46 0.00 86 1012.4
20260507071008 15 35 1.6 3.2 0.00 0.46 0.00 83 1012.4
20260507070012 15 0 0.0 3.2 0.00 0.46 0.00 85 1012.4
20260507064009 15 11 3.2 3.2 0.00 0.46 0.00 86 1011.8
20260507063008 15 28 1.6 6.4 0.00 0.46 0.00 87 1011.9
20260507061009 17 0 0.0 3.2 0.00 0.46 0.00 77 1011.5
20260507060009 17 0 0.0 3.2 0.00 0.46 0.00 78 1011.6
20260507055008 16 0 0.0 3.2 0.00 0.46 0.00 82 1011.5
20260507054009 15 274 1.6 3.2 0.00 0.46 0.00 82 1011.7
20260507053008 15 0 0.0 3.2 0.00 0.46 0.00 80 1011.4
20260507052009 15 0 0.0 3.2 0.00 0.46 0.00 81 1011.5
20260507051008 15 279 1.6 3.2 0.00 0.46 0.00 82 1011.4
20260507045008 14 259 3.2 3.2 0.00 0.46 0.00 83 1011.6
20260507044008 13 248 3.2 3.2 0.00 0.46 0.00 84 1011.6
20260507042008 13 252 3.2 3.2 0.00 0.46 0.00 84 1011.1
20260507041009 13 274 3.2 3.2 0.00 0.46 0.00 85 1011.1
20260507040008 13 282 1.6 3.2 0.00 0.46 0.00 85 1011.2
20260507035009 13 273 1.6 3.2 0.00 0.46 0.00 84 1011.1
20260507034008 13 281 3.2 6.4 0.00 0.46 0.00 84 1011.1
20260507033008 13 285 1.6 3.2 0.00 0.46 0.00 84 1010.9
20260507031008 13 261 3.2 3.2 0.00 0.46 0.00 84 1011.2
20260507030008 13 0 0.0 3.2 0.00 0.46 0.00 85 1011.2
20260507025009 13 0 0.0 3.2 0.00 0.46 0.00 86 1011.2
20260507024008 13 277 3.2 6.4 0.00 0.46 0.00 87 1011.1
20260507023008 13 280 3.2 6.4 0.00 0.46 0.00 87 1011.0
20260507022008 13 268 4.8 6.4 0.00 0.46 0.00 86 1011.1
20260507021007 13 259 3.2 6.4 0.00 0.46 0.00 87 1011.2
20260507015008 13 270 3.2 6.4 0.00 0.46 0.00 87 1011.3
20260507014008 13 274 3.2 6.4 0.00 0.46 0.00 87 1011.3
20260507013008 13 269 3.2 6.4 0.00 0.46 0.00 88 1011.3
20260507012008 13 257 3.2 3.2 0.00 0.46 0.00 88 1011.5
20260507011008 13 255 1.6 3.2 0.00 0.46 0.00 88 1011.5
20260507010008 13 268 1.6 6.4 0.00 0.46 0.00 90 1011.4
20260507005007 13 249 3.2 6.4 0.00 0.46 0.00 91 1011.3
20260507004008 12 273 3.2 6.4 0.00 0.46 0.00 92 1011.5
20260507003008 13 265 3.2 3.2 0.00 0.46 0.00 92 1011.8
20260507002008 13 292 1.6 3.2 0.00 0.46 0.00 91 1011.8
20260507001008 13 196 3.2 6.4 0.00 0.46 0.00 90 1011.5
20260506235008 13 240 3.2 6.4 0.00 0.46 0.00 92 1011.9
20260506234008 13 237 3.2 6.4 0.00 0.46 0.00 93 1011.8
20260506233008 13 221 3.2 6.4 0.00 0.46 0.00 93 1011.8
20260506232008 13 0 0.0 6.4 0.00 0.46 0.00 93 1011.8
20260506231008 13 0 0.0 3.2 0.00 0.46 0.00 93 1011.8
20260506230008 13 0 0.0 3.2 0.00 0.46 0.00 93 1011.7
20260506224007 13 179 1.6 6.4 0.00 0.46 0.00 93 1011.6
20260506222007 13 242 3.2 11.3 0.00 0.46 0.00 92 1011.5
20260506221007 13 158 3.2 9.7 0.00 0.46 0.00 91 1011.7
20260506215008 13 237 4.8 9.7 0.00 0.46 0.46 89 1011.4
20260506214007 13 270 4.8 6.4 0.00 0.46 0.46 89 1011.6
20260506213008 13 190 3.2 6.4 0.00 0.46 0.46 90 1011.5
20260506211007 13 284 1.6 6.4 0.00 0.46 0.46 92 1011.4
20260506210009 13 0 0.0 3.2 0.00 0.46 0.46 92 1011.4
20260506204008 13 261 3.2 3.2 0.00 0.46 0.46 92 1011.7
20260506203007 13 267 1.6 3.2 0.00 0.46 0.46 92 1011.8
20260506202008 13 281 1.6 3.2 0.00 0.48 0.46 91 1011.9
20260506201007 14 262 1.6 3.2 0.03 0.48 0.46 90 1011.9
20260506194008 14 236 3.2 6.4 0.03 0.48 0.46 88 1012.1
20260506193007 14 198 3.2 6.4 0.03 0.48 0.46 89 1012.0
20260506192007 14 208 3.2 6.4 0.03 0.48 0.46 90 1011.9
20260506190009 14 0 0.0 3.2 0.00 0.46 0.43 93 1011.8
20260506185007 14 0 0.0 6.4 0.00 0.46 0.43 93 1011.6
20260506183007 14 151 1.6 3.2 0.00 0.46 0.43 94 1011.4
20260506182007 14 0 0.0 3.2 0.00 0.46 0.43 94 1011.2
20260506180007 13 233 1.6 6.4 0.00 0.46 0.43 95 1011.1